{"data":{"norad_id":67249,"intl_designator":"2025-313B","name":"2025-313B","alt_names":[],"object_type":"PAYLOAD","status":"ACTIVE","operator":null,"country":"TBD","launch_date":"2025-12-28","launch_site_code":"VOSTO","launch_vehicle":null,"mission":null,"orbit_class":"UNKNOWN","rcs_meters":null,"size_class":null,"mass_kg":null,"dimensions":null,"purposes":[],"wikipedia_slug":null,"has_3d_model":false,"image_url":null,"decayed_at":null,"tle_current":{"epoch":"2026-05-25T03:49:18.418080Z","epoch_age_seconds":51346,"freshness":"FRESH","line1":"1 67249U 25313B   26145.15924095  .00003128  00000+0  23908-3 0  9993","line2":"2 67249  97.5123 212.1992 0294221  50.4037 312.2757 14.74130081 21742","mean_motion":14.74130081,"eccentricity":0.0294221,"inclination_deg":97.5123,"raan_deg":212.1992,"arg_perigee_deg":50.4037,"mean_anomaly_deg":312.2757,"bstar":0.00023908,"rev_number":2174,"period_min":97.684730714073,"perigee_km":441.19289496223,"apogee_km":854.6352494658,"semimajor_km":7026.051072214,"source":"CELESTRAK","updated_at":"2026-05-25T13:38:06.842297Z"}}}